| time (UTC) | temp F | wind direction | speed MPH | gust MPH | rain 1hr in | rain 24hr in | rain mn in | humidity % | barometer mb |
| 20260506134604 | 56 | 119 | 5.0 | 12.0 | 0.00 | 0.00 | 0.00 | 67 | 1011.2 |
| 20260506133604 | 56 | 74 | 8.0 | 12.0 | 0.00 | 0.00 | 0.00 | 69 | 1011.3 |
| 20260506132606 | 56 | 115 | 7.0 | 14.0 | 0.00 | 0.00 | 0.00 | 69 | 1011.3 |
| 20260506132105 | 55 | 53 | 6.0 | 13.0 | 0.00 | 0.00 | 0.00 | 69 | 1011.3 |
| 20260506131605 | 55 | 35 | 6.0 | 15.0 | 0.00 | 0.00 | 0.00 | 69 | 1011.1 |
| 20260506131105 | 54 | 62 | 5.0 | 17.0 | 0.00 | 0.00 | 0.00 | 71 | 1011.0 |
| 20260506130105 | 54 | 33 | 7.0 | 23.0 | 0.00 | 0.00 | 0.00 | 72 | 1011.1 |
| 20260506125605 | 54 | 49 | 7.0 | 23.0 | 0.00 | 0.00 | 0.00 | 73 | 1011.3 |
| 20260506124105 | 54 | 36 | 10.0 | 24.0 | 0.00 | 0.00 | 0.00 | 73 | 1011.3 |
| 20260506123604 | 54 | 52 | 9.0 | 24.0 | 0.00 | 0.00 | 0.00 | 73 | 1011.0 |
| 20260506123105 | 54 | 44 | 10.0 | 25.0 | 0.00 | 0.00 | 0.00 | 73 | 1011.1 |
| 20260506122605 | 54 | 48 | 8.0 | 23.0 | 0.00 | 0.00 | 0.00 | 73 | 1011.0 |
| 20260506122105 | 54 | 41 | 12.0 | 29.0 | 0.00 | 0.00 | 0.00 | 73 | 1011.2 |
| 20260506121604 | 54 | 31 | 8.0 | 31.0 | 0.00 | 0.00 | 0.00 | 73 | 1011.2 |
| 20260506120605 | 54 | 68 | 10.0 | 33.0 | 0.00 | 0.00 | 0.00 | 73 | 1011.1 |
| 20260506120105 | 54 | 25 | 9.0 | 24.0 | 0.00 | 0.00 | 0.00 | 73 | 1011.0 |
| 20260506115104 | 54 | 49 | 8.0 | 28.0 | 0.00 | 0.00 | 0.00 | 72 | 1011.0 |
| 20260506114605 | 54 | 26 | 10.0 | 26.0 | 0.00 | 0.00 | 0.00 | 71 | 1011.1 |
| 20260506114105 | 54 | 55 | 7.0 | 23.0 | 0.00 | 0.00 | 0.00 | 71 | 1011.0 |
| 20260506113605 | 55 | 38 | 8.0 | 17.0 | 0.00 | 0.00 | 0.00 | 70 | 1011.1 |
| 20260506113105 | 55 | 25 | 7.0 | 15.0 | 0.00 | 0.00 | 0.00 | 69 | 1011.0 |
| 20260506112604 | 54 | 22 | 7.0 | 25.0 | 0.00 | 0.00 | 0.00 | 69 | 1010.8 |
| 20260506112106 | 54 | 54 | 10.0 | 28.0 | 0.00 | 0.00 | 0.00 | 70 | 1010.8 |
| 20260506111605 | 54 | 54 | 6.0 | 23.0 | 0.00 | 0.00 | 0.00 | 68 | 1010.9 |
| 20260506111105 | 54 | 22 | 9.0 | 25.0 | 0.00 | 0.00 | 0.00 | 68 | 1011.0 |
| 20260506110105 | 55 | 48 | 11.0 | 23.0 | 0.00 | 0.00 | 0.00 | 69 | 1011.0 |
| 20260506105604 | 54 | 52 | 7.0 | 28.0 | 0.00 | 0.00 | 0.00 | 70 | 1010.8 |
| 20260506105105 | 54 | 31 | 7.0 | 22.0 | 0.00 | 0.00 | 0.00 | 72 | 1010.9 |
| 20260506104605 | 54 | 8 | 7.0 | 26.0 | 0.00 | 0.00 | 0.00 | 72 | 1010.9 |
| 20260506104105 | 55 | 25 | 8.0 | 22.0 | 0.00 | 0.00 | 0.00 | 72 | 1010.8 |
| 20260506103605 | 55 | 19 | 7.0 | 18.0 | 0.00 | 0.00 | 0.00 | 71 | 1010.9 |
| 20260506102604 | 55 | 49 | 7.0 | 25.0 | 0.00 | 0.00 | 0.00 | 70 | 1011.0 |
| 20260506102105 | 54 | 35 | 10.0 | 20.0 | 0.00 | 0.00 | 0.00 | 70 | 1010.9 |
| 20260506101605 | 54 | 35 | 7.0 | 18.0 | 0.00 | 0.00 | 0.00 | 72 | 1011.0 |
| 20260506101105 | 54 | 44 | 6.0 | 22.0 | 0.00 | 0.00 | 0.00 | 70 | 1011.2 |
| 20260506100605 | 54 | 57 | 7.0 | 24.0 | 0.00 | 0.00 | 0.00 | 72 | 1011.0 |
| 20260506100106 | 53 | 53 | 10.0 | 24.0 | 0.00 | 0.00 | 0.00 | 73 | 1011.1 |
| 20260506095604 | 53 | 50 | 8.0 | 25.0 | 0.00 | 0.00 | 0.00 | 73 | 1010.8 |
| 20260506095105 | 53 | 30 | 11.0 | 26.0 | 0.00 | 0.00 | 0.00 | 73 | 1011.0 |
| 20260506094605 | 53 | 41 | 9.0 | 28.0 | 0.00 | 0.00 | 0.00 | 72 | 1010.9 |
| 20260506094104 | 53 | 51 | 8.0 | 20.0 | 0.00 | 0.00 | 0.00 | 72 | 1010.9 |
| 20260506093105 | 54 | 21 | 9.0 | 24.0 | 0.00 | 0.00 | 0.00 | 70 | 1010.9 |
| 20260506092605 | 53 | 39 | 9.0 | 23.0 | 0.00 | 0.00 | 0.00 | 71 | 1011.0 |
| 20260506092104 | 52 | 38 | 6.0 | 22.0 | 0.00 | 0.00 | 0.00 | 72 | 1011.1 |
| 20260506091604 | 54 | 45 | 11.0 | 24.0 | 0.00 | 0.00 | 0.00 | 70 | 1010.9 |
| 20260506090604 | 54 | 33 | 9.0 | 25.0 | 0.00 | 0.00 | 0.00 | 70 | 1010.8 |
| 20260506090104 | 53 | 42 | 8.0 | 26.0 | 0.00 | 0.00 | 0.00 | 71 | 1010.5 |
| 20260506085604 | 53 | 39 | 13.0 | 26.0 | 0.00 | 0.00 | 0.00 | 71 | 1010.7 |
| 20260506085105 | 53 | 14 | 10.0 | 30.0 | 0.00 | 0.00 | 0.00 | 72 | 1010.7 |
| 20260506084605 | 53 | 22 | 11.0 | 26.0 | 0.00 | 0.00 | 0.00 | 73 | 1010.6 |
| 20260506084105 | 53 | 27 | 12.0 | 31.0 | 0.00 | 0.00 | 0.00 | 73 | 1010.6 |
| 20260506083604 | 53 | 31 | 12.0 | 28.0 | 0.00 | 0.00 | 0.00 | 73 | 1010.9 |
| 20260506083104 | 52 | 22 | 12.0 | 22.0 | 0.00 | 0.00 | 0.00 | 74 | 1010.8 |
| 20260506082604 | 52 | 19 | 7.0 | 25.0 | 0.00 | 0.00 | 0.00 | 75 | 1010.7 |
| 20260506082105 | 52 | 49 | 8.0 | 21.0 | 0.00 | 0.00 | 0.00 | 76 | 1010.8 |
| 20260506081604 | 52 | 89 | 9.0 | 23.0 | 0.00 | 0.00 | 0.00 | 76 | 1010.7 |
| 20260506080604 | 52 | 48 | 9.0 | 21.0 | 0.00 | 0.00 | 0.00 | 76 | 1010.6 |
| 20260506080104 | 52 | 42 | 10.0 | 22.0 | 0.00 | 0.00 | 0.00 | 76 | 1010.6 |
| 20260506073105 | 51 | 34 | 6.0 | 21.0 | 0.00 | 0.00 | 0.00 | 80 | 1010.6 |
| 20260506072604 | 51 | 51 | 6.0 | 16.0 | 0.00 | 0.00 | 0.00 | 81 | 1010.5 |
| 20260506072104 | 51 | 32 | 8.0 | 26.0 | 0.00 | 0.00 | 0.00 | 82 | 1010.7 |
| 20260506071605 | 50 | 73 | 7.0 | 15.0 | 0.00 | 0.00 | 0.00 | 83 | 1010.6 |
| 20260506071105 | 50 | 31 | 6.0 | 18.0 | 0.00 | 0.00 | 0.00 | 84 | 1010.5 |
| 20260506062105 | 49 | 63 | 5.0 | 13.0 | 0.00 | 0.00 | 0.00 | 86 | 1010.3 |
| 20260506061605 | 48 | 62 | 7.0 | 20.0 | 0.00 | 0.00 | 0.00 | 86 | 1010.3 |
| 20260506061105 | 48 | 40 | 6.0 | 20.0 | 0.00 | 0.00 | 0.00 | 86 | 1010.4 |
| 20260506060605 | 48 | 24 | 9.0 | 18.0 | 0.00 | 0.00 | 0.00 | 87 | 1010.3 |
| 20260506060104 | 48 | 49 | 8.0 | 18.0 | 0.00 | 0.00 | 0.00 | 87 | 1010.2 |
| 20260506051104 | 48 | 348 | 9.0 | 24.0 | 0.00 | 0.00 | 0.00 | 90 | 1010.1 |
| 20260506050604 | 48 | 4 | 8.0 | 20.0 | 0.00 | 0.00 | 0.00 | 90 | 1010.0 |
| 20260506050104 | 47 | 33 | 6.0 | 21.0 | 0.00 | 0.00 | 0.00 | 90 | 1010.1 |
| 20260506045105 | 47 | 0 | 5.0 | 13.0 | 0.00 | 0.00 | 0.00 | 91 | 1009.9 |
| 20260506044604 | 47 | 108 | 6.0 | 14.0 | 0.00 | 0.00 | 0.00 | 91 | 1010.1 |
| 20260506043105 | 48 | 125 | 5.0 | 14.0 | 0.00 | 0.00 | 0.00 | 91 | 1010.1 |
| 20260506042605 | 48 | 88 | 6.0 | 13.0 | 0.00 | 0.00 | 0.00 | 91 | 1010.0 |
| 20260506042105 | 48 | 115 | 4.0 | 10.0 | 0.00 | 0.00 | 0.00 | 91 | 1009.9 |
| 20260506041605 | 48 | 113 | 4.0 | 14.0 | 0.00 | 0.00 | 0.00 | 91 | 1010.0 |
| 20260506041105 | 48 | 112 | 6.0 | 15.0 | 0.00 | 0.00 | 0.00 | 90 | 1010.0 |
| 20260506040605 | 48 | 117 | 7.0 | 16.0 | 0.00 | 0.00 | 0.00 | 90 | 1010.1 |
| 20260506040105 | 48 | 147 | 6.0 | 16.0 | 0.00 | 0.00 | 0.00 | 90 | 1010.0 |
| 20260506035605 | 48 | 50 | 6.0 | 16.0 | 0.00 | 0.00 | 0.00 | 90 | 1009.9 |
| 20260506035104 | 48 | 102 | 5.0 | 12.0 | 0.00 | 0.00 | 0.00 | 90 | 1009.8 |
| 20260506034605 | 48 | 103 | 3.0 | 10.0 | 0.00 | 0.00 | 0.00 | 89 | 1009.8 |
| 20260506034105 | 49 | 65 | 4.0 | 13.0 | 0.00 | 0.00 | 0.00 | 89 | 1009.8 |
| 20260506033605 | 49 | 53 | 6.0 | 21.0 | 0.00 | 0.00 | 0.00 | 89 | 1010.1 |
| 20260506033105 | 49 | 6 | 5.0 | 16.0 | 0.00 | 0.00 | 0.00 | 89 | 1010.0 |
| 20260506032604 | 49 | 57 | 6.0 | 15.0 | 0.00 | 0.00 | 0.00 | 89 | 1010.0 |
| 20260506032104 | 49 | 105 | 8.0 | 20.0 | 0.00 | 0.00 | 0.00 | 89 | 1010.0 |
| 20260506031604 | 49 | 49 | 7.0 | 24.0 | 0.00 | 0.00 | 0.00 | 89 | 1010.0 |
| 20260506031105 | 49 | 41 | 6.0 | 24.0 | 0.00 | 0.00 | 0.00 | 89 | 1010.0 |
| 20260506030605 | 49 | 86 | 6.0 | 14.0 | 0.00 | 0.00 | 0.00 | 89 | 1009.9 |
| 20260506030105 | 49 | 10 | 5.0 | 18.0 | 0.00 | 0.00 | 0.00 | 88 | 1010.1 |
| 20260506025605 | 49 | 46 | 4.0 | 10.0 | 0.00 | 0.00 | 0.00 | 88 | 1010.2 |
| 20260506025105 | 49 | 48 | 5.0 | 17.0 | 0.00 | 0.00 | 0.00 | 88 | 1010.2 |
| 20260506024605 | 49 | 84 | 5.0 | 17.0 | 0.00 | 0.00 | 0.00 | 88 | 1010.1 |
| 20260506023605 | 49 | 56 | 7.0 | 22.0 | 0.00 | 0.00 | 0.00 | 87 | 1010.2 |
| 20260506023105 | 49 | 63 | 7.0 | 23.0 | 0.00 | 0.00 | 0.00 | 87 | 1010.3 |
| 20260506022604 | 49 | 38 | 4.0 | 13.0 | 0.00 | 0.00 | 0.00 | 87 | 1010.2 |
| 20260506022104 | 49 | 69 | 4.0 | 14.0 | 0.00 | 0.00 | 0.00 | 87 | 1010.4 |
| 20260506021604 | 49 | 53 | 5.0 | 15.0 | 0.00 | 0.00 | 0.00 | 87 | 1010.3 |
| 20260506021105 | 49 | 41 | 6.0 | 12.0 | 0.00 | 0.00 | 0.00 | 87 | 1010.2 |
| 20260506020104 | 50 | 60 | 6.0 | 20.0 | 0.00 | 0.00 | 0.00 | 87 | 1010.3 |
| 20260506015604 | 50 | 58 | 6.0 | 20.0 | 0.00 | 0.00 | 0.00 | 87 | 1010.4 |
| 20260506014604 | 50 | 40 | 7.0 | 15.0 | 0.00 | 0.00 | 0.00 | 87 | 1010.5 |
| 20260506014105 | 50 | 66 | 7.0 | 26.0 | 0.00 | 0.00 | 0.00 | 87 | 1010.5 |
| 20260506013604 | 50 | 38 | 8.0 | 20.0 | 0.00 | 0.00 | 0.00 | 88 | 1010.5 |
| 20260506013104 | 50 | 50 | 6.0 | 17.0 | 0.00 | 0.00 | 0.00 | 88 | 1010.5 |
| 20260506012105 | 50 | 16 | 9.0 | 25.0 | 0.00 | 0.00 | 0.00 | 89 | 1010.7 |
| 20260506011605 | 50 | 42 | 10.0 | 25.0 | 0.00 | 0.00 | 0.00 | 89 | 1010.5 |
| 20260506011105 | 50 | 73 | 5.0 | 16.0 | 0.00 | 0.00 | 0.00 | 89 | 1010.6 |
| 20260506010605 | 50 | 34 | 7.0 | 21.0 | 0.00 | 0.00 | 0.00 | 89 | 1010.6 |
| 20260506010104 | 50 | 27 | 9.0 | 22.0 | 0.00 | 0.00 | 0.00 | 89 | 1010.6 |
| 20260506005604 | 50 | 26 | 6.0 | 20.0 | 0.00 | 0.00 | 0.00 | 89 | 1010.8 |
| 20260506004604 | 50 | 28 | 8.0 | 24.0 | 0.00 | 0.00 | 0.00 | 89 | 1010.6 |
| 20260506004104 | 50 | 11 | 10.0 | 26.0 | 0.00 | 0.00 | 0.00 | 90 | 1010.5 |
| 20260506003605 | 50 | 37 | 6.0 | 21.0 | 0.00 | 0.00 | 0.00 | 90 | 1010.6 |
| 20260506003105 | 50 | 42 | 8.0 | 21.0 | 0.00 | 0.00 | 0.00 | 90 | 1010.7 |
| 20260506002605 | 50 | 36 | 9.0 | 22.0 | 0.00 | 0.00 | 0.00 | 90 | 1010.5 |
| 20260506002105 | 49 | 49 | 6.0 | 22.0 | 0.00 | 0.00 | 0.00 | 90 | 1010.8 |
| 20260506001604 | 49 | 35 | 8.0 | 22.0 | 0.00 | 0.00 | 0.00 | 90 | 1010.9 |
| 20260506001105 | 49 | 55 | 7.0 | 23.0 | 0.00 | 0.00 | 0.00 | 90 | 1010.8 |
| 20260506000105 | 49 | 35 | 10.0 | 31.0 | 0.00 | 0.00 | 0.00 | 90 | 1010.7 |
| 20260505235605 | 49 | 36 | 7.0 | 32.0 | 0.00 | 0.00 | 0.00 | 90 | 1010.8 |
| 20260505235104 | 49 | 33 | 7.0 | 25.0 | 0.00 | 0.00 | 0.00 | 89 | 1010.8 |
| 20260505234605 | 49 | 36 | 7.0 | 25.0 | 0.00 | 0.00 | 0.00 | 89 | 1010.5 |
| 20260505234106 | 49 | 38 | 7.0 | 21.0 | 0.00 | 0.00 | 0.00 | 89 | 1010.8 |
| 20260505233605 | 49 | 50 | 5.0 | 23.0 | 0.00 | 0.00 | 0.00 | 89 | 1010.8 |
| 20260505233104 | 49 | 43 | 8.0 | 23.0 | 0.00 | 0.00 | 0.00 | 89 | 1010.5 |
| 20260505232605 | 49 | 15 | 10.0 | 30.0 | 0.00 | 0.00 | 0.00 | 88 | 1010.6 |
| 20260505232105 | 49 | 33 | 9.0 | 32.0 | 0.00 | 0.00 | 0.00 | 88 | 1010.6 |
| 20260505231605 | 49 | 30 | 9.0 | 31.0 | 0.00 | 0.00 | 0.00 | 88 | 1010.5 |
| 20260505231106 | 49 | 18 | 9.0 | 31.0 | 0.00 | 0.00 | 0.00 | 88 | 1010.5 |
| 20260505230104 | 49 | 71 | 7.0 | 23.0 | 0.00 | 0.00 | 0.00 | 87 | 1010.8 |
| 20260505225605 | 49 | 22 | 12.0 | 30.0 | 0.00 | 0.00 | 0.00 | 87 | 1010.9 |
| 20260505225105 | 49 | 23 | 13.0 | 30.0 | 0.00 | 0.00 | 0.00 | 87 | 1010.6 |
| 20260505224605 | 49 | 23 | 9.0 | 22.0 | 0.00 | 0.00 | 0.00 | 87 | 1010.6 |
| 20260505224105 | 49 | 40 | 9.0 | 25.0 | 0.00 | 0.00 | 0.00 | 87 | 1010.9 |
| 20260505223104 | 49 | 36 | 11.0 | 25.0 | 0.00 | 0.00 | 0.00 | 87 | 1010.8 |
| 20260505222605 | 49 | 38 | 8.0 | 25.0 | 0.00 | 0.00 | 0.00 | 87 | 1010.8 |
| 20260505221605 | 49 | 19 | 9.0 | 24.0 | 0.00 | 0.00 | 0.00 | 87 | 1010.6 |
| 20260505221104 | 49 | 32 | 9.0 | 29.0 | 0.00 | 0.00 | 0.00 | 87 | 1010.7 |
| 20260505220604 | 49 | 34 | 12.0 | 26.0 | 0.00 | 0.00 | 0.00 | 87 | 1010.7 |
| 20260505215604 | 50 | 43 | 10.0 | 21.0 | 0.00 | 0.00 | 0.00 | 87 | 1010.8 |
| 20260505215104 | 50 | 36 | 7.0 | 25.0 | 0.00 | 0.00 | 0.00 | 87 | 1010.7 |
| 20260505214604 | 50 | 35 | 9.0 | 28.0 | 0.00 | 0.00 | 0.00 | 87 | 1010.6 |
| 20260505214105 | 50 | 21 | 11.0 | 23.0 | 0.00 | 0.00 | 0.00 | 87 | 1010.6 |
| 20260505211605 | 50 | 34 | 7.0 | 25.0 | 0.00 | 0.00 | 0.00 | 86 | 1010.6 |
| 20260505211104 | 50 | 24 | 10.0 | 30.0 | 0.00 | 0.00 | 0.00 | 85 | 1011.0 |
| 20260505210604 | 50 | 36 | 7.0 | 33.0 | 0.00 | 0.00 | 0.00 | 85 | 1010.8 |
| 20260505210104 | 50 | 22 | 11.0 | 26.0 | 0.00 | 0.00 | 0.00 | 85 | 1010.9 |
| 20260505205605 | 51 | 25 | 10.0 | 31.0 | 0.00 | 0.00 | 0.00 | 84 | 1010.9 |
| 20260505204604 | 51 | 26 | 12.0 | 31.0 | 0.00 | 0.00 | 0.00 | 84 | 1010.7 |
| 20260505204104 | 51 | 46 | 6.0 | 18.0 | 0.00 | 0.00 | 0.00 | 84 | 1010.9 |
| 20260505203604 | 51 | 20 | 10.0 | 23.0 | 0.00 | 0.00 | 0.00 | 84 | 1010.7 |
| 20260505202604 | 51 | 28 | 7.0 | 22.0 | 0.00 | 0.00 | 0.00 | 83 | 1010.7 |
| 20260505202104 | 51 | 35 | 10.0 | 23.0 | 0.00 | 0.00 | 0.00 | 82 | 1010.8 |
| 20260505201605 | 51 | 37 | 9.0 | 28.0 | 0.00 | 0.00 | 0.00 | 82 | 1010.7 |
| 20260505201105 | 51 | 31 | 8.0 | 18.0 | 0.00 | 0.00 | 0.00 | 82 | 1010.6 |
| 20260505200605 | 51 | 84 | 7.0 | 22.0 | 0.00 | 0.00 | 0.00 | 81 | 1010.6 |
| 20260505200104 | 51 | 36 | 9.0 | 24.0 | 0.00 | 0.00 | 0.00 | 81 | 1010.5 |
| 20260505195605 | 52 | 24 | 7.0 | 20.0 | 0.00 | 0.00 | 0.00 | 81 | 1010.2 |
| 20260505195105 | 52 | 43 | 7.0 | 20.0 | 0.00 | 0.00 | 0.00 | 80 | 1010.3 |
| 20260505194604 | 52 | 35 | 7.0 | 20.0 | 0.00 | 0.00 | 0.00 | 80 | 1010.2 |
| 20260505194104 | 52 | 28 | 7.0 | 24.0 | 0.00 | 0.00 | 0.00 | 79 | 1010.4 |
| 20260505193604 | 52 | 33 | 10.0 | 24.0 | 0.00 | 0.00 | 0.00 | 79 | 1010.3 |
| 20260505193104 | 53 | 35 | 8.0 | 24.0 | 0.00 | 0.00 | 0.00 | 78 | 1010.1 |
| 20260505192604 | 53 | 23 | 9.0 | 24.0 | 0.00 | 0.00 | 0.00 | 77 | 1010.1 |
| 20260505192105 | 53 | 60 | 7.0 | 20.0 | 0.00 | 0.00 | 0.00 | 76 | 1010.0 |
| 20260505191105 | 54 | 31 | 7.0 | 23.0 | 0.00 | 0.00 | 0.00 | 75 | 1010.0 |
| 20260505185604 | 54 | 39 | 5.0 | 22.0 | 0.00 | 0.00 | 0.00 | 74 | 1010.2 |
| 20260505185104 | 55 | 54 | 7.0 | 17.0 | 0.00 | 0.00 | 0.00 | 73 | 1010.1 |
| 20260505184604 | 55 | 19 | 9.0 | 23.0 | 0.00 | 0.00 | 0.00 | 73 | 1010.1 |
| 20260505183604 | 55 | 46 | 7.0 | 22.0 | 0.00 | 0.00 | 0.00 | 72 | 1010.0 |
| 20260505183105 | 55 | 32 | 7.0 | 17.0 | 0.00 | 0.00 | 0.00 | 72 | 1010.2 |
| 20260505182604 | 55 | 37 | 6.0 | 20.0 | 0.00 | 0.00 | 0.00 | 71 | 1010.2 |
| 20260505182104 | 55 | 72 | 6.0 | 25.0 | 0.00 | 0.00 | 0.00 | 71 | 1010.0 |
| 20260505181605 | 55 | 50 | 10.0 | 20.0 | 0.00 | 0.00 | 0.00 | 69 | 1010.0 |
| 20260505181104 | 55 | 53 | 8.0 | 23.0 | 0.00 | 0.00 | 0.00 | 69 | 1009.9 |
| 20260505180605 | 56 | 35 | 9.0 | 23.0 | 0.00 | 0.00 | 0.00 | 68 | 1010.1 |
| 20260505180104 | 56 | 53 | 10.0 | 25.0 | 0.00 | 0.00 | 0.00 | 67 | 1009.9 |
| 20260505175605 | 56 | 59 | 9.0 | 24.0 | 0.00 | 0.00 | 0.00 | 66 | 1010.0 |
| 20260505175104 | 56 | 41 | 10.0 | 25.0 | 0.00 | 0.00 | 0.00 | 65 | 1010.1 |
| 20260505174605 | 57 | 55 | 9.0 | 21.0 | 0.00 | 0.00 | 0.00 | 64 | 1010.0 |
| 20260505174105 | 57 | 67 | 9.0 | 28.0 | 0.00 | 0.00 | 0.00 | 65 | 1009.8 |
| 20260505173604 | 57 | 55 | 7.0 | 23.0 | 0.00 | 0.00 | 0.00 | 64 | 1010.0 |
| 20260505172604 | 57 | 42 | 12.0 | 23.0 | 0.00 | 0.00 | 0.00 | 63 | 1010.1 |
| 20260505172104 | 56 | 60 | 6.0 | 23.0 | 0.00 | 0.00 | 0.00 | 64 | 1009.9 |
| 20260505171604 | 56 | 47 | 6.0 | 16.0 | 0.00 | 0.00 | 0.00 | 64 | 1010.0 |
| 20260505171105 | 56 | 31 | 7.0 | 16.0 | 0.00 | 0.00 | 0.00 | 65 | 1010.1 |
| 20260505170105 | 57 | 59 | 6.0 | 22.0 | 0.00 | 0.00 | 0.00 | 63 | 1010.2 |
| 20260505165604 | 57 | 53 | 7.0 | 23.0 | 0.00 | 0.00 | 0.00 | 62 | 1010.2 |
| 20260505164604 | 57 | 54 | 7.0 | 26.0 | 0.00 | 0.00 | 0.00 | 63 | 1010.0 |
| 20260505164105 | 57 | 51 | 10.0 | 36.0 | 0.00 | 0.00 | 0.00 | 62 | 1010.0 |
| 20260505163604 | 58 | 39 | 9.0 | 36.0 | 0.00 | 0.00 | 0.00 | 62 | 1010.1 |
| 20260505163104 | 59 | 39 | 9.0 | 25.0 | 0.00 | 0.00 | 0.00 | 61 | 1010.3 |
| 20260505162604 | 58 | 46 | 12.0 | 26.0 | 0.00 | 0.00 | 0.00 | 61 | 1010.0 |
| 20260505162104 | 58 | 64 | 7.0 | 23.0 | 0.00 | 0.00 | 0.00 | 62 | 1010.0 |
| 20260505161604 | 58 | 68 | 7.0 | 23.0 | 0.00 | 0.00 | 0.00 | 63 | 1009.9 |
| 20260505160604 | 57 | 48 | 9.0 | 20.0 | 0.00 | 0.00 | 0.00 | 64 | 1010.3 |
| 20260505160104 | 57 | 59 | 8.0 | 23.0 | 0.00 | 0.00 | 0.00 | 64 | 1010.3 |
| 20260505153104 | 57 | 44 | 10.0 | 28.0 | 0.00 | 0.00 | 0.00 | 68 | 1010.2 |
| 20260505152604 | 56 | 42 | 13.0 | 24.0 | 0.00 | 0.00 | 0.00 | 68 | 1010.4 |
| 20260505152104 | 56 | 30 | 10.0 | 26.0 | 0.00 | 0.00 | 0.00 | 69 | 1010.4 |
| 20260505151605 | 57 | 16 | 8.0 | 23.0 | 0.00 | 0.00 | 0.00 | 71 | 1010.3 |
| 20260505151104 | 57 | 61 | 7.0 | 29.0 | 0.00 | 0.00 | 0.00 | 71 | 1010.5 |
| 20260505150605 | 57 | 66 | 8.0 | 18.0 | 0.00 | 0.00 | 0.00 | 71 | 1010.3 |
| 20260505150104 | 56 | 50 | 7.0 | 24.0 | 0.00 | 0.00 | 0.00 | 72 | 1010.4 |
| 20260505140604 | 59 | 46 | 12.0 | 32.0 | 0.00 | 0.00 | 0.00 | 66 | 1010.4 |
| 20260505140105 | 58 | 50 | 12.0 | 32.0 | 0.00 | 0.00 | 0.00 | 66 | 1010.4 |